Wind_Speed
22 22 22 23 24 26 26 26 26 26 26 25 24 23 22 22 21 21 20 19 17 16 14 13 12 11 10 9 9 9 9 9 10 11 12 12 13 13 14 14 13 14 15 16 16 15 15 14 14 13 13 13 13 13 13 12 11 10 10 10 10 11 12 12 12 12 13 14 14 13 12 12 13 13 13 12 12 12 13 13 12 12 12 12 11
19 20 20 22 23 24 25 25 26 26 27 26 25 23 23 23 22 22 22 20 19 18 16 14 13 12 12 11 10 10 10 10 11 11 11 12 12 13 13 13 13 14 15 16 17 17 17 16 16 15 15 14 14 14 15 15 14 12 11 12 12 12 12 13 13 13 13 14 15 14 14 13 12 13 14 14 13 12 13 13 14 14 13 13 12
19 20 22 22 23 24 25 25 26 27 27 27 25 24 24 24 24 24 23 21 20 19 18 17 15 14 13 13 13 12 12 11 11 12 12 12 12 12 13 14 14 14 15 15 16 18 19 18 17 17 17 17 16 15 16 16 16 15 13 13 13 14 14 14 15 15 15 15 15 15 15 14 13 13 14 15 15 15 14 15 15 16 15 14 13
20 21 22 23 24 25 26 26 27 27 27 27 26 25 25 24 25 24 23 22 22 20 20 20 19 17 15 14 14 14 13 13 13 12 12 12 12 12 13 14 14 14 15 15 16 18 19 19 19 19 19 19 18 17 17 17 18 18 16 15 14 15 16 16 16 16 16 17 17 17 17 16 14 13 14 16 16 17 17 17 17 17 17 16 15
21 21 21 22 24 26 27 28 28 28 28 27 26 26 25 26 25 25 24 23 22 21 21 21 21 20 18 16 15 15 14 14 14 14 13 13 12 13 13 14 15 15 15 15 16 18 19 20 19 20 21 21 20 19 18 18 19 19 19 17 17 16 17 18 17 18 18 17 18 19 19 18 17 15 14 15 17 17 18 18 18 18 18 17 16
23 22 21 22 23 25 27 28 29 29 28 28 27 26 27 26 26 26 25 25 24 23 22 22 22 21 20 18 17 16 16 15 16 16 15 15 14 13 14 14 15 15 15 16 16 17 19 20 20 21 22 22 21 20 19 19 20 20 20 19 19 19 20 20 19 20 19 19 19 20 20 20 19 18 16 16 17 17 18 19 19 19 18 18 18
26 25 24 23 23 24 26 27 28 28 28 28 28 27 28 28 27 27 26 26 26 25 24 23 23 22 22 21 20 19 18 17 17 17 17 17 16 15 15 15 15 16 16 16 16 17 18 20 21 22 23 23 22 21 21 21 22 22 22 21 22 22 22 21 22 22 21 21 21 21 21 22 21 20 19 18 18 17 18 20 21 20 20 19 19
28 27 26 25 24 23 23 25 26 27 28 28 28 29 29 28 28 28 27 27 27 26 26 24 24 23 23 23 22 21 21 20 19 18 18 18 18 17 16 16 16 17 17 17 18 18 19 19 20 22 23 23 23 23 23 23 23 24 24 24 24 25 24 24 25 24 24 24 23 22 23 24 23 22 21 21 19 17 18 21 21 21 22 21 20
29 29 29 27 26 24 23 23 24 25 27 28 29 29 29 29 29 29 28 28 27 27 26 26 26 25 25 24 23 23 23 22 21 20 19 19 19 18 18 18 18 18 19 19 19 20 20 20 20 21 22 23 24 24 24 24 25 25 25 26 26 27 27 27 28 27 27 27 26 25 26 26 26 25 24 23 21 19 21 22 22 21 23 24 22
28 30 30 28 27 26 25 24 23 23 25 27 28 29 29 29 30 29 29 28 27 27 27 27 27 27 26 25 24 24 23 23 22 21 21 20 20 20 20 20 20 20 20 20 20 20 21 21 21 21 22 23 24 25 25 26 26 26 27 28 28 29 29 30 31 31 30 30 29 28 29 28 27 27 27 26 24 23 23 24 23 23 25 25 24
25 26 27 28 28 29 28 27 25 24 24 24 26 27 28 29 29 29 28 27 27 27 27 27 27 26 26 25 25 25 24 23 22 22 22 22 22 21 21 21 21 20 20 19 19 19 20 21 21 22 23 23 24 25 25 26 27 27 28 29 29 30 31 32 33 33 33 33 32 31 32 31 29 29 29 28 28 27 26 25 26 26 26 26 25
21 22 23 25 28 30 30 30 29 28 26 25 24 24 26 28 28 28 27 26 26 26 25 25 25 24 24 24 24 24 23 22 21 21 22 22 22 22 21 20 20 19 18 17 17 18 19 20 21 22 23 24 25 26 26 27 28 28 29 30 31 31 32 32 34 35 36 35 35 34 34 32 30 30 30 30 30 30 29 29 29 29 28 28 27
19 18 19 21 24 27 29 31 31 31 29 28 26 24 25 26 27 27 26 25 25 24 23 22 22 22 22 22 22 21 19 18 17 17 18 19 19 19 18 17 17 16 16 16 16 17 18 19 21 22 22 24 25 27 28 29 29 30 31 32 33 33 33 33 34 36 37 38 38 37 35 34 33 32 32 32 32 33 33 33 32 31 31 30 29
20 18 17 18 19 22 25 29 31 32 32 31 29 28 27 26 26 26 25 25 25 24 22 21 20 20 19 19 19 18 16 14 14 14 14 15 15 16 16 15 15 15 15 16 16 17 18 19 21 21 22 24 25 27 29 30 31 32 33 35 35 35 35 35 35 37 39 40 40 39 37 37 37 35 34 35 36 35 36 36 35 34 34 33 32
21 18 16 16 16 18 20 23 27 31 33 33 33 32 31 29 27 26 26 25 25 23 22 21 20 19 18 18 18 18 16 14 13 13 13 13 14 15 16 17 17 17 17 17 18 19 21 22 23 23 24 25 26 27 29 30 31 33 34 36 37 37 38 37 37 38 39 41 42 42 41 40 39 38 38 38 38 37 37 37 38 38 38 37 35
22 19 17 15 15 16 17 18 21 26 30 33 34 34 34 32 30 28 27 26 26 25 24 23 22 20 19 19 19 19 17 15 14 14 13 14 15 17 18 19 19 20 20 21 22 23 24 25 25 26 26 26 27 28 29 31 33 34 35 37 38 38 39 38 38 39 41 42 43 44 43 43 43 42 41 41 40 39 39 40 40 40 40 40 39
22 20 18 15 15 16 16 16 17 20 24 28 31 33 35 34 33 32 30 29 28 27 26 24 23 22 22 21 20 19 18 17 16 15 15 15 17 18 20 20 21 23 23 25 26 27 28 28 28 29 29 28 29 29 31 33 35 36 37 38 39 40 39 38 39 41 42 43 43 44 44 45 45 45 44 44 43 42 42 44 43 41 40 41 40
23 22 20 17 16 15 15 17 18 19 20 22 26 29 32 34 34 34 33 32 31 29 27 27 26 25 24 22 21 20 19 18 18 18 17 18 19 20 21 22 24 25 26 27 28 29 30 30 31 33 33 32 33 33 34 37 38 39 39 40 42 41 39 38 41 43 43 43 44 44 45 45 46 46 46 45 45 44 46 47 45 43 43 42 40
23 22 21 19 18 16 15 16 19 20 19 19 22 25 27 31 33 35 35 35 34 33 31 30 29 27 26 24 22 22 21 20 20 20 20 21 22 23 25 26 26 27 28 29 29 30 31 32 33 35 36 36 37 37 38 40 41 41 42 44 45 42 38 41 45 45 45 46 47 46 47 47 46 47 47 47 47 48 49 49 47 47 46 43 41
23 22 21 21 21 20 18 17 19 20 20 20 21 22 24 26 29 33 35 36 35 35 34 34 32 30 28 26 25 24 23 22 22 23 24 25 26 28 29 30 29 30 32 32 32 33 34 35 36 38 39 39 40 40 41 42 42 43 44 46 44 41 41 46 49 48 49 51 51 51 51 50 49 50 50 50 50 51 52 51 50 50 48 45 44
24 24 24 24 24 24 23 21 20 20 21 21 22 23 23 24 26 29 32 35 36 36 35 35 34 32 31 29 28 26 25 25 26 27 28 29 30 32 32 32 32 34 35 35 35 35 37 38 40 41 42 42 42 42 42 42 42 43 44 44 43 43 46 50 51 52 53 53 54 55 55 54 54 54 53 53 53 54 54 53 53 52 50 47 46
26 26 27 27 28 28 28 26 24 22 21 21 23 24 25 24 25 26 28 31 34 35 35 35 35 34 33 32 31 30 29 29 29 30 31 32 33 34 34 34 35 37 38 38 37 38 40 41 42 41 42 41 41 41 41 41 42 43 43 43 45 46 49 51 52 54 55 55 56 57 57 56 56 56 56 56 56 56 56 55 54 53 51 49 48
28 29 30 29 30 31 31 30 28 25 22 21 22 26 26 26 26 26 27 28 31 32 34 35 35 35 34 34 33 32 32 32 32 33 34 34 34 35 36 37 38 40 41 39 39 41 42 42 42 41 40 40 39 40 41 41 43 44 45 46 47 48 49 52 54 56 56 57 59 59 59 58 58 57 58 58 57 57 56 54 53 53 52 51 50
30 30 30 30 30 31 31 30 29 28 25 22 23 25 27 28 27 27 27 28 29 30 32 33 34 35 35 35 34 34 34 35 36 36 35 35 35 36 37 38 40 42 42 41 41 42 43 43 42 41 40 40 41 42 42 43 44 46 47 48 48 49 51 54 56 58 58 59 60 60 59 60 60 60 60 61 60 58 55 54 54 54 53 52 52
29 30 30 29 29 30 29 28 29 29 28 25 24 25 28 30 29 28 28 28 28 29 30 31 33 34 34 35 36 36 38 39 38 37 35 36 36 37 38 40 41 43 44 43 42 43 44 44 43 42 42 43 43 43 43 44 45 46 47 47 49 51 52 55 58 60 60 60 60 58 57 58 59 59 60 63 63 60 56 55 56 57 56 54 53
29 29 29 28 28 28 28 28 28 29 29 28 26 26 27 30 31 31 30 29 28 28 29 29 31 32 33 35 36 38 40 40 39 38 37 38 38 39 40 41 43 45 45 44 43 43 43 44 43 43 43 43 44 44 44 45 46 47 48 49 50 52 54 56 60 61 62 64 64 60 57 57 58 58 59 61 62 60 58 57 58 61 61 56 53
31 30 29 28 27 27 28 29 30 31 31 31 29 27 27 30 32 33 31 30 29 29 29 30 30 31 32 34 36 39 40 40 39 39 40 40 41 42 43 44 44 44 43 42 42 41 41 41 41 41 42 42 43 44 45 46 47 48 49 50 51 53 54 57 60 62 63 65 66 63 61 60 60 60 60 60 60 60 59 58 60 65 65 61 58
30 31 30 29 28 27 28 30 31 33 33 33 32 29 28 29 33 34 33 31 31 31 31 32 32 32 33 35 37 39 39 39 40 41 42 43 43 44 44 43 42 41 40 40 40 39 39 40 40 41 42 44 45 46 46 46 48 49 50 50 51 52 54 56 59 61 62 63 64 63 62 62 62 62 62 63 64 64 63 62 63 66 67 63 58
29 30 30 29 28 27 27 28 31 33 34 34 32 31 29 30 32 33 34 33 33 33 33 34 34 35 36 37 38 39 39 40 42 42 43 44 44 43 42 41 39 38 38 37 37 37 38 40 41 42 44 45 46 46 46 47 48 49 50 51 51 53 55 57 60 62 61 61 61 62 62 63 63 63 63 64 66 66 67 66 64 64 65 63 58
27 28 29 29 28 27 26 27 28 30 32 33 32 31 29 29 30 32 34 34 34 34 35 36 36 37 37 38 39 40 40 41 42 42 42 42 41 40 39 37 36 36 36 36 37 38 40 42 43 43 44 45 46 46 47 48 49 50 50 51 52 54 56 58 60 62 62 61 61 62 63 65 66 66 66 66 65 66 69 71 69 66 65 64 62
27 27 28 28 28 28 26 25 24 24 26 29 30 29 28 28 29 31 32 33 34 35 36 36 37 37 38 38 39 39 40 40 40 40 39 38 37 36 35 35 34 35 35 37 39 40 42 43 43 43 44 45 47 48 49 49 50 51 52 53 54 56 57 59 60 62 63 63 62 63 66 69 70 69 69 68 67 65 66 69 71 70 67 65 65
26 27 28 29 29 29 28 26 23 22 22 24 25 26 26 27 28 29 31 32 33 34 34 35 35 36 36 37 37 37 37 37 37 36 35 34 33 33 33 33 33 35 36 38 39 40 41 42 42 43 44 46 47 48 49 50 51 53 54 56 57 57 58 59 60 61 62 62 63 65 68 70 69 68 67 66 66 66 65 66 70 70 66 63 64
25 26 28 29 29 28 28 27 26 24 23 24 25 26 26 27 28 29 30 31 31 32 32 32 32 32 32 32 33 33 33 33 32 32 31 31 31 31 32 32 34 35 37 38 38 39 40 41 43 44 45 46 48 48 49 51 52 54 56 57 58 58 58 57 58 58 58 59 63 66 68 68 66 65 64 62 63 65 66 68 69 68 65 63 63
24 25 26 27 27 27 26 26 26 26 26 26 26 26 25 26 26 27 27 28 29 30 30 29 29 29 29 29 29 29 28 28 28 29 29 29 30 31 32 33 35 36 36 37 37 39 41 42 44 45 45 47 48 49 50 51 52 53 55 56 56 57 57 56 56 56 56 59 62 63 63 63 62 62 61 58 60 65 69 70 68 65 60 60 60
22 22 23 24 24 24 24 25 25 25 25 25 25 25 24 24 23 23 23 23 24 25 26 27 27 27 26 26 25 25 25 25 26 26 27 28 30 31 33 34 35 35 35 36 37 39 41 43 44 44 46 47 48 49 50 50 51 52 53 53 54 55 54 54 54 55 57 59 58 57 56 55 55 57 54 50 52 62 71 74 74 68 57 51 53
21 20 20 21 22 22 22 23 24 23 24 25 25 25 25 25 25 24 23 23 23 24 24 24 24 24 23 23 23 23 24 24 24 26 27 29 30 32 32 32 33 33 35 36 38 40 42 44 45 45 46 47 47 48 48 48 49 50 50 50 51 51 50 51 52 52 52 51 48 47 48 46 45 46 42 39 45 57 66 69 67 57 48 47 52
22 21 20 20 21 21 21 22 23 23 24 25 24 24 24 26 26 25 23 22 22 23 23 22 22 22 22 22 22 23 23 24 26 27 28 29 30 30 30 31 32 34 35 37 38 40 42 44 45 45 45 45 45 45 45 45 46 46 46 46 47 47 47 48 47 45 44 42 38 37 40 39 35 33 33 38 50 58 60 58 53 46 42 46 48
22 21 20 19 20 21 22 24 24 24 24 24 25 25 26 27 27 26 23 22 22 22 21 21 20 21 22 22 22 23 25 26 27 28 28 29 29 29 30 31 33 35 37 39 40 41 42 42 42 42 41 41 41 41 41 42 42 42 42 43 42 41 41 41 40 39 38 35 32 33 36 33 28 24 26 29 37 41 37 38 48 49 41 34 31
21 21 20 20 21 23 24 26 26 26 25 26 27 27 28 28 27 25 23 23 23 22 21 20 20 21 22 23 24 25 26 27 27 27 28 29 30 30 31 33 35 37 39 40 40 39 39 38 38 38 38 38 38 37 37 38 38 37 37 36 35 35 34 34 34 33 31 29 31 35 38 34 24 14 9 13 27 32 25 25 31 34 26 20 20
22 22 22 22 23 24 25 26 27 27 27 26 26 25 26 25 24 23 22 23 24 24 23 23 23 23 24 24 25 25 25 26 26 27 28 29 30 32 33 35 36 38 39 38 37 36 35 35 35 35 34 34 34 33 33 33 33 32 30 29 29 29 29 29 29 28 27 27 29 30 31 27 17 5 3 11 19 21 18 17 20 17 11 10 13
25 26 26 27 27 27 27 28 27 27 26 26 26 26 27 27 27 26 25 25 25 26 26 25 25 24 24 24 24 24 25 25 26 27 29 30 31 32 33 34 35 36 36 36 34 33 33 32 32 31 31 30 30 29 29 28 27 26 26 25 24 23 23 23 23 21 21 22 21 21 20 16 10 6 4 6 8 6 4 6 7 6 6 10 14
28 29 30 31 31 31 31 30 29 28 27 28 28 29 29 29 28 27 26 25 26 26 26 25 23 22 22 23 24 25 25 27 28 29 30 31 31 32 32 33 33 33 33 32 31 30 30 29 29 28 28 26 25 25 25 24 24 24 23 21 19 18 17 18 17 15 15 16 15 14 11 8 5 5 4 3 7 9 10 8 6 5 8 13 16
31 31 31 32 32 32 31 30 30 29 29 29 28 28 27 26 25 24 24 23 23 23 23 23 23 22 22 23 24 25 26 28 29 29 30 30 30 31 33 33 31 30 29 28 28 28 27 26 26 25 24 23 22 22 23 23 22 22 20 17 15 14 13 13 13 12 12 13 14 13 10 8 8 8 5 2 1 3 3 2 1 5 10 12 13
30 31 31 31 30 30 29 29 29 28 27 26 26 25 24 23 22 21 20 20 21 22 23 24 24 24 24 24 24 24 25 27 28 29 30 31 31 31 31 30 27 25 25 25 26 25 24 24 24 23 21 20 21 22 22 22 21 19 17 14 11 10 10 10 9 10 10 10 11 12 12 9 7 6 4 3 3 2 1 2 4 6 8 9 9
28 29 30 29 29 28 28 26 25 24 22 22 22 21 21 20 20 20 20 21 23 24 25 25 25 26 26 26 25 25 26 28 29 30 31 31 29 28 27 26 24 23 23 24 24 24 23 22 21 20 19 19 20 21 20 20 18 17 15 12 9 9 10 8 6 7 8 7 6 7 7 6 5 5 6 5 2 2 4 6 8 9 9 9 7
28 28 28 28 27 26 25 24 23 22 21 20 21 21 21 21 22 22 23 23 24 24 25 25 25 26 26 27 28 28 29 29 29 29 30 28 25 24 24 24 23 22 22 22 22 21 21 20 19 18 18 18 18 18 17 16 16 15 14 12 10 10 11 9 7 7 6 4 3 3 3 3 3 4 3 2 2 4 6 8 9 9 8 6 5
28 26 25 24 23 23 23 23 23 23 22 22 22 22 22 22 22 22 22 22 23 23 24 24 25 26 27 27 28 28 28 27 26 26 26 24 22 22 23 24 23 22 22 22 21 20 20 19 18 17 17 17 17 16 15 15 14 13 13 12 11 10 9 8 8 8 7 5 4 4 3 3 3 3 2 0 3 5 7 9 10 10 7 5 6
25 24 22 21 21 21 21 22 22 22 22 22 21 21 21 21 21 21 21 21 22 22 23 23 24 25 26 27 27 26 26 24 23 23 22 21 21 21 23 23 23 22 21 21 21 20 19 19 18 17 17 16 15 14 13 12 11 10 10 10 10 9 7 6 7 7 6 5 4 4 4 4 4 3 2 2 4 4 5 6 7 7 7 7 8
20 20 19 19 19 19 19 19 19 19 19 19 19 19 19 19 19 19 19 20 20 20 21 22 23 23 24 25 25 24 23 22 21 21 21 21 21 21 21 22 22 22 22 21 21 20 19 18 17 17 16 14 11 11 11 11 10 9 8 8 8 7 6 5 4 5 5 4 4 4 4 4 5 4 4 4 6 7 8 8 8 8 8 9 9
17 16 16 16 15 15 16 16 15 15 15 15 15 16 16 16 16 17 17 18 18 19 19 20 20 20 21 21 21 21 20 20 20 21 22 22 22 22 22 22 21 21 21 21 20 19 17 16 16 16 16 14 11 11 11 11 10 10 9 8 7 8 7 6 5 5 5 5 5 5 4 5 6 7 7 7 9 10 11 11 11 11 10 10 10
13 13 13 13 13 13 13 12 12 12 12 12 12 13 13 13 14 14 15 15 15 16 16 16 16 16 17 17 17 17 17 18 19 20 21 22 23 23 22 22 21 21 20 19 18 16 14 13 13 15 16 14 12 12 13 13 12 12 11 11 11 11 11 11 9 9 8 7 7 7 8 8 9 10 10 10 11 12 12 13 13 13 13 14 15
Wind_Direction
212 214 215 215 216 217 217 217 218 220 223 225 225 225 225 225 224 224 226 229 229 230 231 232 237 240 241 240 241 246 254 259 259 256 255 255 256 257 257 253 246 239 239 243 245 248 251 254 256 257 261 269 278 285 289 295 301 308 313 318 322 323 321 323 327 328 330 335 343 352 357 357 354 353 358 359 354 347 342 341 342 342 343 343 340
210 211 212 215 217 218 219 218 219 220 222 224 224 223 224 224 225 225 225 226 230 234 236 237 238 242 247 250 250 251 252 257 264 264 263 260 257 258 259 259 257 250 244 244 247 251 252 253 256 258 259 261 267 276 282 287 292 298 303 306 309 311 312 313 315 317 318 321 330 338 342 345 346 343 344 347 346 343 338 334 335 336 338 340 341
207 209 210 213 215 216 218 218 219 221 222 223 222 222 223 224 225 226 226 227 230 233 238 243 244 245 247 251 254 257 258 259 263 267 270 271 268 265 263 263 262 260 254 250 250 251 252 253 254 257 261 262 264 268 273 279 285 290 294 296 298 302 304 306 309 310 309 310 317 325 330 335 338 334 334 336 337 338 337 334 332 332 331 332 334
207 209 211 212 213 215 216 217 218 221 222 222 221 221 222 224 226 228 228 229 231 233 237 243 247 250 251 252 255 259 262 265 267 270 272 274 275 273 270 267 265 264 262 258 255 254 253 253 254 256 260 262 263 266 269 274 280 284 286 288 290 292 294 297 302 305 305 306 309 313 318 325 330 328 326 327 329 332 333 332 330 328 327 326 325
213 214 213 214 215 216 216 217 218 220 222 222 221 221 222 224 226 229 230 232 233 235 238 241 246 252 255 257 259 260 263 266 268 270 271 271 272 273 272 271 269 267 265 263 261 259 258 256 256 257 258 261 263 265 268 271 275 279 283 285 286 286 286 289 293 297 300 304 305 305 309 314 319 321 322 321 322 325 325 325 325 325 324 322 320
217 218 217 218 219 219 219 219 220 222 223 223 222 222 223 225 226 229 231 234 236 238 240 243 247 252 256 260 261 262 264 266 267 268 268 267 266 267 270 272 273 272 270 268 265 263 262 262 261 260 259 261 263 264 267 269 272 276 280 283 283 282 282 285 288 289 293 296 298 299 303 306 308 312 315 315 315 317 317 316 317 319 320 319 316
218 220 220 220 220 220 221 222 223 224 225 225 225 224 225 227 228 229 232 235 238 240 243 245 248 252 255 258 260 262 264 265 266 266 265 265 264 264 266 270 275 278 277 275 270 267 265 265 265 264 264 264 265 265 266 268 271 274 276 278 280 280 282 284 284 285 287 289 291 293 296 298 300 304 307 306 308 311 309 307 310 314 314 314 314
220 222 222 223 222 221 222 224 225 226 227 228 228 228 228 229 230 232 233 235 238 242 245 248 251 252 254 256 257 260 262 263 264 264 263 263 263 264 267 271 275 279 279 278 275 271 268 266 265 266 266 267 268 268 267 267 268 271 273 274 276 278 281 282 282 283 285 285 286 288 290 291 294 298 299 299 303 305 300 300 305 307 306 307 309
220 222 223 224 224 223 222 224 227 227 228 229 230 231 231 232 233 235 235 236 238 241 246 249 251 253 253 255 255 257 259 261 262 263 262 262 263 266 268 271 273 274 275 275 274 271 269 268 266 266 267 268 268 268 268 267 268 269 271 273 274 276 279 280 281 282 283 284 286 286 286 287 291 294 295 298 301 299 294 295 300 300 298 301 304
218 222 224 223 224 225 225 224 226 228 229 230 231 232 233 233 236 238 239 239 240 241 244 247 250 253 254 255 256 257 259 260 261 263 262 261 262 265 268 271 271 271 271 270 270 270 269 269 268 267 267 267 268 268 269 270 270 270 271 272 273 275 277 279 280 282 283 284 285 285 285 286 289 292 294 296 296 293 292 293 294 292 292 296 299
218 223 226 225 224 225 225 225 226 227 228 230 232 232 234 235 237 239 241 242 241 241 243 245 248 251 254 255 255 257 259 261 261 261 260 260 262 264 267 270 271 270 270 269 269 269 269 268 268 268 267 267 268 269 269 270 271 272 272 272 272 274 275 277 279 280 281 282 283 283 283 285 288 289 291 293 293 293 292 288 287 288 290 293 294
222 223 226 228 227 226 226 226 227 227 228 229 231 232 234 236 236 238 240 241 242 243 243 244 246 249 253 255 256 256 258 261 261 258 257 259 260 263 265 267 269 270 270 269 269 268 268 268 267 266 266 267 268 269 269 269 270 272 273 273 273 273 273 275 277 279 279 281 281 280 281 284 286 286 288 290 291 290 287 285 285 287 288 289 291
228 227 227 229 230 229 228 227 228 228 228 228 230 232 233 235 236 237 238 240 242 243 243 244 246 246 249 253 256 257 256 258 258 254 252 254 256 259 263 265 268 270 270 270 270 269 269 269 269 268 267 268 268 269 270 270 271 272 273 273 273 274 275 276 277 279 280 281 281 282 284 286 285 285 287 286 285 284 284 285 286 285 285 286 287
229 230 228 225 226 229 229 229 229 229 230 229 229 231 232 234 235 237 238 240 241 243 243 244 245 245 245 248 255 258 255 250 249 248 246 248 251 256 263 267 269 270 271 272 272 272 273 273 273 272 271 270 270 271 272 273 274 274 274 274 274 275 276 276 277 278 280 282 284 285 286 286 286 287 286 284 283 283 284 285 285 283 282 283 283
226 228 227 221 220 223 226 229 230 230 231 230 230 231 232 233 235 235 237 240 242 244 245 244 244 245 244 246 252 257 255 247 244 243 243 245 248 255 262 266 269 271 273 275 275 276 277 277 276 276 275 275 275 276 277 278 278 278 277 277 278 278 278 277 277 278 279 280 282 283 285 285 286 286 285 284 284 283 283 283 283 282 282 282 282
223 225 228 224 220 221 224 227 229 230 231 231 232 232 232 232 233 234 237 240 242 244 245 245 244 244 245 246 249 254 256 253 248 243 241 241 244 250 256 261 267 271 273 275 277 277 278 278 278 279 279 279 280 281 283 283 282 281 280 280 280 280 280 280 280 280 279 280 281 283 285 286 286 286 285 284 284 284 283 281 279 280 282 283 284
223 227 230 229 225 225 229 231 230 230 231 232 233 234 233 233 233 234 236 239 241 244 246 247 248 246 246 247 249 252 255 256 255 251 247 246 246 248 252 256 260 265 269 273 276 278 280 281 283 284 285 285 286 286 286 285 284 283 282 282 283 282 282 283 283 283 282 283 284 284 285 286 286 286 286 285 285 284 281 279 279 280 280 280 281
225 230 233 236 235 233 233 234 235 235 234 234 235 235 235 235 234 234 236 239 241 244 247 249 250 249 249 249 249 251 252 254 257 257 256 258 259 259 260 259 258 260 264 268 272 276 280 284 287 289 291 292 291 289 288 286 286 286 286 287 286 285 284 285 285 285 286 285 285 284 283 283 283 284 284 284 284 281 278 278 280 279 277 277 278
228 233 237 241 244 245 243 239 238 239 238 237 237 236 235 235 235 235 236 238 241 243 245 248 250 251 251 251 251 251 250 251 254 257 261 266 268 269 269 268 267 268 271 274 276 278 282 285 288 291 294 295 294 292 290 289 288 289 289 288 287 288 290 289 288 287 287 285 283 282 281 281 281 280 279 279 278 277 277 277 276 275 275 276 276
232 236 241 244 247 251 252 249 245 243 239 238 239 238 235 234 235 235 235 237 239 241 244 247 249 252 253 253 253 252 252 253 256 260 264 268 270 272 273 274 277 280 283 285 286 287 289 290 290 291 293 293 293 292 291 290 290 289 288 287 287 290 292 291 288 287 287 285 284 283 281 280 280 278 277 276 275 275 276 275 274 274 274 274 274
236 238 242 246 249 253 256 255 253 249 242 237 239 240 237 235 235 235 235 236 237 239 242 245 248 252 253 254 255 255 255 257 259 263 265 267 269 271 273 277 281 284 286 288 290 293 293 293 292 292 292 292 291 290 289 289 288 287 286 286 287 289 289 288 287 287 286 285 285 284 283 281 280 279 278 277 276 275 275 274 273 272 272 273 274
239 241 242 244 248 253 256 256 256 254 246 239 238 240 238 236 235 235 235 236 236 238 241 244 247 251 253 254 255 255 256 259 261 264 266 267 268 270 273 276 279 281 283 287 291 293 293 293 293 293 292 292 290 288 287 287 286 286 287 288 288 289 288 287 287 286 285 285 284 283 282 282 281 280 279 278 277 277 276 274 273 272 272 273 274
240 241 243 243 246 251 255 255 255 254 251 244 239 240 240 238 237 236 236 237 238 238 240 243 246 249 252 255 256 256 258 260 261 263 265 266 268 270 273 275 277 278 281 285 288 290 290 291 292 292 292 291 290 289 289 289 289 289 290 290 290 290 289 288 287 286 285 285 283 281 281 281 281 280 280 279 277 275 275 275 275 274 272 271 270
240 240 242 243 245 248 252 254 253 253 254 250 242 239 240 239 238 236 235 237 238 239 241 242 245 248 252 255 258 260 261 262 262 262 263 264 267 269 272 275 277 279 281 284 287 289 290 291 291 290 289 289 289 290 290 290 290 291 291 291 292 292 290 289 289 287 284 281 279 277 279 281 281 281 283 283 280 277 276 276 275 273 270 268 266
241 240 240 242 244 248 252 253 252 253 254 253 248 242 239 239 238 237 235 236 237 240 242 243 245 248 251 254 258 260 261 262 262 262 263 266 268 271 274 277 279 281 283 285 288 290 292 292 290 289 289 289 289 289 289 290 290 291 291 292 292 292 291 290 289 286 283 280 278 278 278 280 281 283 284 284 283 282 280 277 273 270 267 263 260
242 240 240 241 243 248 252 253 252 253 253 254 253 248 242 239 238 238 238 238 239 241 244 245 247 249 251 253 256 257 259 261 263 264 266 268 270 273 276 278 280 282 285 287 289 290 290 290 289 289 289 289 289 289 290 290 291 292 293 294 293 293 291 289 288 287 286 284 283 284 284 284 285 285 284 282 281 280 278 275 271 268 264 260 257
242 241 241 242 244 249 253 253 252 251 251 252 254 253 248 242 239 239 240 240 241 243 244 246 248 249 251 252 254 255 258 261 263 265 267 268 270 273 274 276 279 282 285 287 288 288 287 287 288 289 289 289 289 290 291 292 293 294 294 294 294 293 291 289 288 288 287 286 287 288 288 286 285 285 284 282 280 278 277 274 271 269 265 260 256
241 241 242 244 248 251 252 252 251 249 248 249 250 253 253 246 240 239 240 241 243 244 246 247 248 249 251 252 253 256 259 261 263 265 267 269 270 272 273 276 279 282 284 285 285 285 285 286 288 289 289 290 291 292 294 296 296 296 295 295 294 293 291 291 290 290 290 292 292 293 291 288 286 284 281 279 278 277 276 274 271 269 267 262 255
242 241 242 245 250 251 251 250 248 246 244 245 247 252 255 250 243 241 241 242 244 246 248 249 250 251 252 253 256 258 261 263 264 266 267 269 270 272 274 276 279 280 281 281 282 283 285 287 289 290 291 292 294 296 298 298 298 297 297 296 295 294 293 293 292 294 296 296 296 296 294 290 286 282 278 275 273 272 271 271 268 266 265 264 257
243 241 241 244 248 249 248 247 247 244 241 243 247 252 252 249 244 243 243 245 246 247 249 251 252 253 254 255 258 260 261 263 265 266 268 270 271 273 275 276 277 277 278 279 282 285 288 289 291 292 293 295 297 298 299 298 298 297 296 295 295 295 295 295 295 297 300 300 299 298 295 290 287 284 280 276 271 267 266 266 265 262 261 262 258
244 242 241 242 245 246 245 245 245 243 241 243 247 247 245 242 242 243 244 246 248 249 250 252 253 254 255 256 258 260 261 263 265 267 269 270 271 272 274 275 276 278 281 284 286 288 289 290 292 294 297 298 299 299 299 298 298 298 298 297 298 298 299 299 300 302 303 303 301 298 295 292 289 286 284 281 276 270 265 262 261 259 258 259 257
245 244 242 242 244 245 244 244 245 243 241 241 241 241 240 239 240 241 243 246 248 250 252 253 254 255 255 256 258 259 261 263 265 266 267 268 269 271 274 276 279 283 285 287 288 289 290 293 296 298 299 300 299 300 300 301 302 302 302 301 301 301 302 302 303 304 304 303 300 297 295 292 290 288 287 283 279 275 270 265 261 257 255 256 254
244 244 242 242 243 244 244 245 246 247 246 245 243 242 241 242 242 242 243 245 248 250 251 250 250 251 252 254 256 257 259 260 261 263 265 267 271 274 277 281 284 286 287 288 289 292 296 299 301 302 301 301 301 301 302 303 303 303 302 302 302 303 304 304 305 305 303 300 298 296 294 292 290 289 286 279 273 271 269 266 261 257 254 253 249
243 244 243 242 241 241 243 243 244 245 245 244 245 244 242 241 241 242 243 244 245 246 245 244 245 246 248 250 251 253 256 258 260 263 266 270 275 279 282 285 286 286 289 292 296 299 301 302 302 302 301 301 301 302 302 302 302 302 302 303 305 306 306 307 307 305 302 299 296 294 293 293 291 289 284 277 270 267 266 265 261 256 252 248 243
242 244 245 244 241 240 241 241 241 242 240 238 238 236 234 231 229 230 232 235 236 238 239 239 241 244 246 248 250 252 255 259 262 267 272 276 280 283 284 285 287 291 295 299 301 302 301 301 301 300 300 300 301 301 302 303 303 304 305 306 307 307 307 308 306 303 301 299 297 295 294 293 290 286 280 272 265 260 257 255 253 248 244 245 245
239 240 240 240 239 237 237 237 237 237 236 234 232 229 228 228 228 227 228 230 231 233 235 238 241 245 247 250 252 254 258 263 267 272 276 278 280 282 284 287 291 295 298 299 300 300 300 299 300 300 300 301 302 302 304 304 305 306 307 307 307 307 307 305 301 300 302 303 301 298 297 296 293 289 283 277 268 256 245 243 245 246 241 238 235
237 238 235 232 231 230 229 231 232 230 229 229 228 227 229 232 234 233 233 232 233 234 236 238 241 243 245 249 253 258 263 267 270 273 275 277 279 282 286 290 293 295 296 297 298 298 298 298 299 300 301 302 303 304 305 306 306 308 308 307 307 307 305 301 298 299 304 309 308 304 302 299 296 299 299 285 264 245 230 228 237 245 241 230 218
235 235 231 225 222 220 220 223 225 224 224 222 220 221 224 230 233 235 235 235 235 235 234 235 238 243 248 253 257 262 266 268 271 273 275 278 282 285 289 292 294 296 297 297 297 297 297 298 299 301 302 303 304 305 306 307 308 309 309 309 309 307 304 302 301 302 307 315 324 328 326 320 313 317 316 287 249 225 217 224 226 222 217 209 193
231 231 228 224 221 219 218 218 218 219 220 219 218 219 222 227 232 235 235 236 236 234 233 234 238 245 251 256 260 263 266 269 272 276 280 284 288 291 293 295 296 297 297 297 297 297 298 299 301 303 304 304 305 306 308 309 310 312 311 311 313 312 310 311 315 318 322 332 342 348 348 345 342 338 314 244 214 208 220 228 209 191 177 164 159
222 222 220 218 217 219 219 218 218 218 218 218 220 222 223 225 228 229 231 235 238 240 242 245 247 250 254 258 261 265 268 272 277 281 284 287 289 292 294 295 296 296 296 296 296 298 300 301 303 304 304 305 306 307 309 311 312 313 315 318 322 324 325 328 333 339 346 351 355 357 358 356 355 359 161 170 174 180 183 171 156 151 152 163 175
213 210 208 207 208 210 211 211 212 213 214 215 217 219 221 224 226 227 231 236 241 246 249 250 252 254 257 261 265 269 273 276 279 282 285 287 289 292 293 294 293 293 294 295 297 299 301 302 303 303 304 305 306 308 309 311 313 315 319 327 335 339 343 347 350 351 353 356 359 4 7 9 16 32 65 121 135 137 147 160 175 210 212 179 177
208 207 208 210 211 211 211 210 211 212 213 217 221 224 227 232 235 237 239 242 246 249 252 254 257 260 262 266 270 273 276 279 282 284 287 289 290 291 291 291 291 292 294 297 299 300 301 302 302 302 302 303 305 307 308 309 312 315 319 329 345 356 1 5 4 357 352 352 353 356 1 1 350 340 324 242 225 253 274 275 259 229 186 172 177
208 207 210 213 214 216 218 220 219 218 218 221 225 228 232 237 241 243 246 249 253 256 259 261 263 264 266 269 273 276 279 282 284 286 287 287 288 287 287 288 291 294 297 299 300 300 301 302 301 301 300 300 302 307 309 309 312 314 315 324 344 2 12 19 19 12 5 1 358 356 354 338 313 303 299 274 256 292 305 312 186 183 181 179 177
205 206 210 213 214 217 221 223 223 222 222 223 226 230 233 237 242 246 250 254 257 259 260 262 264 267 270 273 276 279 280 282 283 284 284 284 284 285 285 288 291 295 298 299 300 300 301 302 301 300 299 299 302 307 310 311 312 311 311 315 330 352 8 22 27 21 18 17 13 9 9 3 350 343 351 6 15 26 58 133 156 157 152 151 156
203 207 212 215 216 217 219 221 221 222 223 224 227 230 233 236 239 242 245 248 251 254 258 262 267 270 274 276 278 278 278 278 279 279 279 280 281 284 287 291 294 296 296 296 296 297 298 300 301 299 298 300 304 306 308 309 308 306 305 306 311 328 344 355 360 1 6 14 18 14 14 13 3 355 352 351 2 111 121 120 125 131 137 148 166
207 208 212 216 218 218 219 221 221 221 221 221 222 225 229 233 237 240 244 248 253 258 263 267 270 273 276 277 278 278 278 277 277 277 277 280 284 287 290 292 293 294 293 291 291 292 295 297 300 300 299 300 303 303 301 302 304 303 300 298 296 304 316 321 316 317 326 331 320 311 315 315 312 318 337 17 106 139 142 141 143 148 155 167 188
213 212 214 218 220 221 222 223 222 223 224 224 226 229 233 237 241 245 250 254 258 261 265 268 270 273 274 275 276 276 276 276 277 277 280 285 288 288 289 292 293 293 291 289 287 289 293 297 301 303 301 296 294 293 291 291 295 298 301 301 298 297 300 300 298 295 291 283 270 261 257 254 251 257 277 115 136 146 148 150 157 165 180 212 233
219 218 217 218 219 221 223 225 227 229 232 234 238 240 243 245 248 250 252 254 257 260 264 266 268 270 271 272 273 274 275 277 278 280 282 285 286 287 289 292 292 291 288 286 285 289 294 298 302 304 303 295 285 281 283 282 282 289 302 308 304 299 296 291 286 281 274 262 253 256 260 251 229 213 199 179 178 182 183 182 187 201 225 244 248
218 220 221 222 224 227 229 233 236 238 240 243 246 248 249 251 253 254 255 257 259 261 263 266 268 269 271 272 274 276 277 279 279 280 281 283 283 284 286 288 289 289 286 284 284 287 293 300 304 304 301 294 280 273 278 282 282 286 298 304 298 290 286 284 276 265 256 249 244 247 251 246 235 229 224 218 225 237 243 242 243 247 246 245 247
213 218 221 223 226 230 233 237 240 241 243 246 249 250 252 254 255 256 258 260 261 263 265 267 269 271 272 273 274 275 276 276 275 276 277 278 279 280 280 281 284 285 285 286 288 292 299 307 309 301 293 288 280 274 277 282 285 288 291 294 287 274 265 260 253 241 239 246 249 246 249 254 256 254 249 241 240 244 246 248 252 253 250 251 258
198 203 207 210 215 220 225 230 235 238 243 247 249 251 256 258 258 260 263 263 265 267 268 270 272 274 275 276 276 276 275 274 274 274 274 273 273 274 276 278 281 284 287 290 293 295 300 304 301 292 287 285 283 279 278 280 282 283 281 279 273 263 254 250 246 240 242 252 253 248 250 257 259 258 256 255 257 258 258 258 257 255 256 261 267
Height
3166 3168 3171 3174 3176 3179 3181 3183 3185 3187 3189 3190 3192 3194 3196 3198 3199 3201 3203 3204 3205 3206 3208 3209 3210 3212 3213 3214 3215 3216 3217 3217 3218 3219 3220 3221 3222 3223 3224 3225 3227 3228 3230 3231 3232 3233 3234 3235 3236 3237 3237 3238 3238 3238 3238 3238 3238 3238 3238 3238 3237 3236 3235 3235 3234 3234 3232 3231 3231 3231 3230 3229 3228 3227 3227 3227 3226 3225 3225 3224 3224 3223 3222 3221 3220
3164 3166 3169 3172 3174 3177 3179 3181 3183 3185 3186 3188 3190 3192 3194 3195 3197 3199 3200 3202 3203 3205 3206 3207 3209 3210 3211 3212 3213 3215 3216 3217 3217 3218 3218 3219 3220 3221 3222 3223 3224 3226 3227 3228 3230 3231 3231 3232 3233 3234 3235 3236 3236 3236 3236 3237 3237 3237 3237 3236 3236 3235 3234 3233 3233 3233 3232 3231 3230 3229 3229 3228 3228 3226 3225 3225 3225 3224 3224 3223 3222 3221 3220 3219 3218
3161 3164 3166 3169 3172 3174 3176 3178 3180 3182 3184 3186 3188 3190 3192 3193 3195 3196 3198 3200 3201 3203 3204 3205 3207 3208 3209 3210 3211 3213 3214 3215 3216 3216 3217 3218 3218 3219 3220 3221 3222 3223 3224 3226 3227 3228 3229 3230 3231 3232 3232 3233 3234 3235 3235 3235 3235 3235 3235 3235 3234 3234 3233 3232 3231 3231 3230 3229 3228 3228 3227 3227 3227 3226 3224 3224 3223 3222 3222 3221 3220 3219 3218 3217 3217
3159 3161 3164 3167 3169 3172 3173 3176 3177 3179 3181 3183 3186 3188 3190 3191 3193 3194 3196 3198 3199 3201 3202 3203 3204 3206 3207 3209 3210 3211 3212 3213 3214 3215 3216 3216 3217 3217 3218 3219 3220 3221 3222 3223 3224 3225 3226 3227 3228 3229 3229 3230 3231 3232 3232 3232 3232 3232 3232 3233 3232 3232 3231 3230 3230 3229 3228 3228 3227 3226 3225 3225 3225 3224 3223 3222 3221 3220 3219 3218 3217 3216 3216 3215 3214
3158 3160 3162 3165 3167 3169 3171 3173 3175 3176 3179 3181 3183 3186 3187 3189 3190 3192 3194 3195 3197 3199 3200 3201 3202 3203 3205 3207 3208 3209 3210 3212 3213 3213 3214 3215 3215 3216 3216 3217 3217 3218 3219 3220 3221 3222 3223 3224 3225 3226 3226 3227 3228 3229 3229 3230 3229 3229 3229 3230 3230 3229 3229 3228 3228 3227 3226 3226 3225 3224 3223 3222 3222 3222 3222 3221 3220 3218 3217 3216 3216 3215 3214 3213 3212
3156 3158 3160 3163 3165 3167 3169 3171 3172 3174 3176 3179 3181 3183 3185 3186 3188 3190 3191 3193 3195 3196 3198 3199 3200 3202 3203 3204 3206 3207 3209 3210 3210 3211 3212 3213 3214 3214 3214 3215 3215 3216 3217 3218 3219 3219 3220 3221 3222 3223 3223 3224 3225 3226 3226 3227 3226 3226 3226 3226 3226 3226 3226 3226 3225 3225 3224 3223 3223 3222 3221 3220 3220 3219 3219 3219 3218 3217 3216 3215 3214 3213 3212 3211 3210
3154 3156 3158 3160 3162 3164 3167 3169 3171 3173 3175 3177 3179 3181 3182 3184 3185 3187 3189 3191 3192 3194 3195 3197 3198 3200 3201 3202 3203 3205 3206 3207 3208 3209 3210 3211 3211 3212 3213 3213 3213 3214 3214 3215 3216 3217 3217 3218 3219 3219 3220 3221 3222 3223 3223 3223 3223 3223 3223 3223 3223 3223 3223 3223 3222 3221 3221 3221 3220 3220 3219 3218 3217 3217 3217 3216 3215 3215 3214 3212 3211 3211 3210 3209 3208
3152 3154 3156 3158 3160 3162 3165 3167 3169 3171 3173 3175 3177 3178 3180 3181 3183 3185 3187 3188 3189 3191 3193 3194 3196 3197 3199 3200 3201 3202 3203 3204 3205 3207 3207 3208 3209 3210 3211 3211 3211 3212 3212 3212 3213 3214 3214 3215 3216 3216 3217 3217 3218 3219 3220 3220 3220 3220 3220 3220 3219 3219 3219 3219 3218 3218 3218 3217 3217 3217 3217 3215 3215 3215 3214 3214 3213 3213 3212 3210 3209 3208 3207 3206 3205
3149 3152 3154 3156 3158 3161 3163 3165 3167 3169 3171 3173 3174 3176 3178 3179 3181 3182 3184 3185 3187 3189 3190 3191 3193 3194 3196 3197 3199 3200 3200 3201 3202 3204 3205 3206 3206 3207 3208 3209 3209 3209 3210 3210 3210 3210 3211 3212 3213 3213 3214 3214 3215 3215 3216 3216 3216 3216 3217 3216 3216 3215 3215 3215 3214 3214 3214 3213 3214 3214 3213 3212 3212 3212 3211 3211 3210 3210 3209 3207 3206 3206 3204 3202 3202
3147 3149 3151 3153 3156 3159 3161 3163 3165 3167 3168 3170 3172 3173 3175 3177 3178 3179 3181 3183 3184 3186 3187 3188 3189 3191 3192 3194 3196 3197 3197 3198 3200 3201 3202 3203 3204 3204 3205 3205 3206 3207 3207 3207 3207 3208 3208 3209 3209 3210 3210 3211 3211 3211 3212 3212 3212 3213 3213 3213 3212 3212 3211 3211 3210 3210 3210 3209 3210 3210 3209 3209 3209 3208 3207 3207 3207 3206 3205 3204 3203 3202 3201 3199 3199
3145 3146 3148 3151 3154 3156 3158 3160 3162 3164 3166 3168 3169 3171 3173 3174 3175 3177 3178 3180 3181 3183 3184 3185 3187 3188 3189 3191 3192 3193 3194 3195 3197 3198 3199 3200 3201 3202 3202 3202 3203 3203 3204 3204 3205 3205 3205 3206 3206 3206 3207 3207 3207 3208 3208 3208 3208 3209 3209 3209 3209 3208 3208 3207 3206 3206 3205 3205 3205 3205 3204 3204 3205 3205 3204 3203 3203 3202 3201 3200 3199 3198 3197 3196 3196
3143 3145 3147 3149 3151 3153 3155 3157 3159 3161 3163 3165 3167 3169 3170 3171 3173 3174 3175 3177 3179 3180 3182 3183 3184 3186 3186 3187 3189 3190 3191 3193 3194 3195 3196 3197 3198 3198 3199 3199 3199 3200 3200 3201 3201 3202 3202 3202 3203 3203 3203 3203 3203 3204 3204 3204 3205 3205 3204 3204 3204 3204 3203 3203 3202 3201 3200 3200 3200 3200 3200 3200 3201 3201 3200 3200 3199 3198 3197 3196 3195 3194 3193 3192 3192
3140 3142 3144 3146 3148 3150 3152 3154 3156 3158 3160 3162 3164 3166 3168 3169 3170 3171 3173 3175 3176 3177 3179 3180 3182 3183 3184 3184 3185 3187 3189 3190 3191 3192 3193 3194 3195 3195 3196 3196 3196 3196 3197 3198 3198 3199 3199 3199 3199 3199 3200 3200 3200 3199 3200 3200 3200 3200 3200 3199 3199 3199 3199 3199 3198 3197 3196 3195 3195 3195 3196 3196 3196 3196 3197 3195 3194 3193 3192 3191 3191 3190 3189 3188 3189
3138 3140 3141 3143 3145 3147 3149 3151 3153 3155 3157 3159 3161 3163 3164 3166 3168 3169 3171 3172 3173 3175 3176 3178 3179 3180 3181 3182 3183 3184 3186 3187 3188 3189 3190 3191 3192 3192 3193 3193 3193 3193 3194 3194 3195 3195 3196 3196 3196 3196 3197 3197 3196 3196 3196 3196 3196 3196 3195 3194 3194 3194 3194 3194 3194 3193 3191 3190 3189 3190 3191 3191 3190 3191 3192 3190 3189 3188 3188 3187 3186 3185 3184 3184 3184
3136 3137 3139 3140 3142 3144 3145 3147 3149 3151 3154 3156 3158 3159 3161 3163 3165 3167 3169 3170 3171 3173 3174 3176 3177 3178 3179 3180 3180 3181 3183 3185 3186 3187 3188 3189 3190 3190 3190 3190 3190 3190 3191 3191 3192 3192 3192 3192 3192 3193 3193 3193 3193 3193 3192 3192 3192 3191 3190 3189 3189 3189 3189 3189 3189 3188 3187 3185 3184 3184 3185 3185 3184 3185 3185 3184 3183 3183 3183 3182 3181 3180 3179 3179 3179
3134 3135 3136 3138 3139 3141 3143 3144 3146 3148 3150 3152 3154 3156 3158 3160 3162 3164 3166 3167 3169 3170 3171 3173 3174 3175 3176 3177 3178 3178 3180 3182 3183 3185 3186 3187 3188 3188 3188 3188 3188 3187 3188 3188 3188 3189 3189 3189 3189 3189 3189 3190 3190 3189 3189 3188 3187 3187 3186 3184 3184 3184 3183 3183 3183 3182 3181 3180 3179 3178 3178 3178 3178 3178 3178 3177 3177 3177 3177 3176 3175 3174 3173 3173 3173
3132 3133 3134 3136 3137 3138 3140 3142 3143 3145 3147 3148 3150 3152 3154 3157 3159 3161 3163 3165 3166 3167 3169 3170 3171 3173 3174 3174 3175 3176 3177 3179 3180 3181 3183 3184 3185 3185 3185 3186 3185 3185 3185 3185 3185 3185 3185 3185 3185 3185 3185 3186 3186 3186 3185 3184 3183 3182 3181 3180 3179 3178 3178 3178 3177 3176 3175 3175 3174 3173 3173 3172 3171 3171 3171 3170 3171 3171 3169 3167 3167 3169 3168 3167 3167
3130 3131 3132 3134 3135 3136 3137 3139 3140 3142 3144 3145 3147 3148 3151 3153 3156 3158 3160 3161 3163 3164 3166 3167 3168 3170 3171 3172 3173 3174 3175 3176 3177 3178 3179 3180 3181 3181 3182 3182 3182 3182 3182 3183 3182 3182 3182 3181 3181 3181 3181 3181 3182 3181 3181 3179 3178 3177 3176 3175 3174 3172 3172 3173 3171 3170 3169 3168 3167 3166 3166 3165 3164 3164 3164 3163 3163 3163 3161 3159 3161 3161 3160 3160 3161
3128 3129 3130 3131 3132 3134 3135 3136 3138 3139 3141 3142 3143 3145 3147 3149 3152 3154 3156 3158 3160 3162 3163 3164 3165 3167 3168 3169 3170 3171 3172 3173 3174 3174 3175 3176 3176 3176 3177 3177 3177 3178 3178 3179 3179 3179 3179 3179 3178 3177 3177 3177 3177 3176 3175 3174 3172 3172 3171 3169 3167 3166 3167 3166 3165 3164 3163 3161 3160 3159 3158 3158 3158 3157 3156 3156 3155 3154 3153 3152 3153 3152 3152 3153 3154
3126 3127 3128 3129 3130 3131 3132 3134 3135 3136 3138 3139 3140 3142 3144 3146 3147 3149 3152 3154 3156 3158 3159 3160 3162 3163 3165 3166 3167 3168 3169 3170 3171 3172 3172 3172 3172 3172 3172 3171 3172 3172 3173 3174 3174 3174 3174 3175 3174 3174 3173 3173 3172 3171 3170 3169 3167 3166 3165 3163 3160 3161 3161 3159 3157 3156 3155 3153 3151 3151 3151 3151 3151 3149 3149 3149 3148 3147 3146 3145 3145 3144 3145 3146 3147
3123 3124 3125 3126 3127 3128 3129 3131 3132 3133 3134 3136 3137 3138 3140 3142 3143 3145 3147 3149 3152 3153 3155 3156 3158 3160 3161 3163 3164 3165 3166 3167 3167 3168 3168 3169 3169 3168 3168 3168 3168 3168 3168 3169 3169 3169 3169 3170 3169 3169 3168 3168 3167 3166 3165 3164 3162 3161 3159 3157 3156 3156 3155 3152 3149 3148 3147 3145 3143 3142 3142 3143 3143 3142 3142 3142 3141 3141 3140 3139 3138 3138 3138 3139 3140
3120 3121 3122 3123 3124 3125 3126 3127 3129 3130 3131 3132 3134 3135 3136 3138 3139 3141 3143 3145 3147 3149 3151 3152 3154 3155 3157 3159 3160 3161 3162 3163 3164 3164 3164 3165 3165 3164 3164 3164 3165 3164 3164 3164 3165 3165 3165 3165 3165 3164 3164 3163 3162 3161 3159 3158 3157 3155 3154 3153 3151 3150 3148 3145 3143 3141 3138 3137 3135 3133 3133 3134 3135 3135 3135 3135 3135 3135 3133 3133 3133 3132 3132 3133 3134
3117 3118 3119 3120 3122 3122 3123 3124 3125 3126 3127 3129 3130 3131 3133 3134 3136 3137 3139 3141 3143 3145 3147 3149 3150 3151 3153 3154 3156 3157 3159 3160 3160 3160 3160 3160 3161 3161 3161 3161 3161 3160 3160 3161 3161 3161 3161 3160 3160 3160 3159 3158 3157 3155 3154 3153 3151 3150 3149 3147 3146 3144 3142 3138 3135 3132 3130 3128 3126 3124 3125 3126 3126 3127 3127 3128 3128 3127 3126 3126 3127 3127 3127 3127 3127
3113 3114 3115 3117 3118 3119 3120 3121 3121 3122 3124 3125 3126 3127 3129 3131 3132 3134 3135 3137 3139 3140 3143 3145 3146 3148 3149 3150 3152 3153 3154 3155 3155 3156 3156 3157 3157 3157 3157 3157 3157 3156 3156 3157 3157 3156 3156 3155 3155 3154 3154 3153 3152 3151 3150 3149 3147 3145 3144 3142 3140 3138 3135 3131 3128 3124 3121 3119 3117 3118 3119 3120 3120 3120 3121 3120 3119 3119 3120 3120 3120 3119 3119 3119 3120
3109 3110 3112 3113 3114 3115 3116 3117 3118 3119 3120 3121 3122 3124 3125 3127 3129 3130 3132 3133 3135 3137 3139 3141 3142 3144 3146 3147 3148 3149 3149 3149 3150 3151 3152 3152 3152 3152 3152 3153 3152 3151 3151 3152 3152 3151 3150 3149 3149 3149 3148 3147 3146 3145 3144 3143 3142 3140 3138 3137 3135 3131 3128 3124 3120 3116 3113 3111 3111 3112 3115 3116 3116 3116 3116 3113 3111 3111 3113 3113 3112 3110 3108 3109 3111
3105 3106 3108 3109 3110 3111 3112 3113 3114 3115 3115 3116 3118 3120 3122 3123 3125 3126 3128 3130 3132 3133 3135 3137 3139 3140 3142 3143 3144 3144 3144 3145 3146 3147 3148 3148 3148 3148 3148 3148 3148 3147 3147 3147 3147 3147 3146 3144 3143 3143 3142 3142 3140 3139 3138 3137 3136 3134 3132 3130 3128 3124 3120 3116 3112 3108 3106 3103 3102 3104 3108 3111 3112 3111 3109 3106 3102 3101 3102 3103 3102 3099 3097 3099 3101
3101 3102 3104 3105 3106 3107 3108 3109 3110 3111 3111 3112 3114 3116 3118 3119 3120 3122 3124 3126 3128 3129 3131 3133 3134 3136 3137 3139 3139 3139 3139 3140 3142 3143 3144 3144 3144 3144 3144 3144 3144 3144 3144 3143 3143 3142 3141 3139 3138 3138 3137 3136 3134 3133 3132 3131 3129 3127 3125 3123 3121 3117 3113 3109 3105 3102 3099 3095 3093 3095 3098 3100 3101 3100 3097 3095 3092 3091 3091 3092 3090 3087 3087 3088 3090
3097 3099 3100 3102 3103 3104 3104 3105 3105 3106 3107 3108 3110 3112 3114 3115 3116 3118 3120 3122 3124 3125 3127 3128 3130 3131 3133 3133 3134 3134 3135 3136 3137 3138 3139 3140 3140 3140 3140 3140 3140 3140 3140 3139 3138 3137 3136 3134 3133 3132 3131 3130 3128 3127 3126 3124 3122 3120 3117 3115 3113 3109 3106 3102 3097 3094 3092 3089 3086 3085 3085 3085 3085 3085 3085 3083 3082 3081 3082 3081 3079 3077 3077 3079 3081
3093 3095 3096 3098 3099 3099 3100 3100 3100 3101 3103 3105 3107 3109 3110 3111 3113 3115 3116 3118 3120 3121 3122 3124 3125 3127 3128 3129 3129 3130 3131 3132 3133 3133 3134 3135 3135 3136 3136 3136 3137 3136 3136 3134 3133 3132 3131 3129 3128 3127 3125 3123 3122 3120 3118 3116 3114 3112 3110 3107 3104 3101 3098 3094 3089 3086 3085 3082 3078 3076 3074 3071 3070 3070 3071 3070 3070 3071 3071 3071 3070 3069 3069 3070 3071
3089 3091 3092 3094 3095 3095 3095 3095 3096 3097 3100 3102 3104 3105 3106 3107 3109 3111 3113 3114 3116 3117 3118 3120 3121 3122 3123 3124 3125 3126 3127 3128 3128 3129 3129 3130 3130 3131 3132 3132 3132 3131 3131 3129 3128 3127 3126 3124 3123 3121 3119 3117 3115 3113 3111 3109 3107 3104 3102 3100 3097 3093 3090 3086 3081 3077 3075 3072 3069 3065 3062 3058 3056 3055 3054 3054 3055 3057 3058 3057 3057 3058 3059 3060 3061
3086 3087 3089 3090 3091 3091 3092 3092 3093 3095 3097 3099 3100 3101 3102 3104 3105 3107 3109 3110 3111 3113 3114 3115 3117 3118 3119 3120 3121 3122 3122 3123 3124 3124 3124 3125 3125 3126 3126 3127 3127 3126 3125 3124 3123 3122 3121 3119 3117 3115 3113 3110 3108 3106 3104 3101 3099 3096 3093 3091 3088 3085 3081 3077 3073 3068 3064 3060 3057 3053 3049 3045 3042 3040 3038 3037 3038 3040 3043 3044 3044 3045 3048 3050 3051
3083 3084 3085 3086 3087 3088 3089 3090 3091 3092 3094 3096 3097 3098 3099 3100 3102 3103 3105 3106 3107 3109 3110 3111 3113 3114 3115 3116 3117 3117 3118 3119 3119 3120 3120 3120 3121 3121 3121 3121 3121 3121 3120 3119 3118 3117 3115 3113 3111 3109 3106 3104 3102 3099 3097 3094 3091 3088 3084 3080 3078 3076 3072 3069 3065 3061 3055 3050 3046 3042 3038 3034 3030 3027 3025 3022 3022 3023 3025 3027 3029 3032 3038 3042 3044
3080 3081 3081 3082 3083 3084 3085 3087 3088 3089 3091 3093 3093 3094 3095 3096 3098 3100 3101 3103 3104 3105 3106 3108 3109 3110 3111 3112 3113 3113 3114 3115 3115 3116 3116 3116 3116 3117 3116 3116 3116 3115 3115 3114 3113 3111 3109 3106 3104 3102 3100 3097 3095 3093 3090 3087 3084 3080 3077 3073 3070 3068 3065 3062 3058 3053 3048 3043 3037 3032 3028 3024 3020 3016 3013 3012 3013 3013 3012 3013 3016 3021 3028 3033 3038
3076 3077 3078 3079 3080 3081 3082 3084 3085 3086 3087 3089 3090 3091 3092 3093 3095 3096 3098 3099 3100 3101 3103 3104 3105 3106 3107 3108 3109 3110 3110 3111 3111 3112 3112 3112 3112 3112 3112 3111 3111 3110 3110 3108 3106 3104 3102 3100 3098 3096 3094 3092 3089 3087 3084 3081 3078 3074 3071 3067 3064 3060 3057 3054 3051 3045 3040 3035 3029 3024 3019 3015 3011 3006 3002 3001 3001 3000 2999 3000 3004 3010 3019 3025 3030
3073 3074 3075 3076 3077 3078 3079 3080 3081 3082 3084 3085 3087 3088 3089 3091 3092 3093 3095 3096 3097 3098 3100 3101 3102 3103 3104 3105 3106 3106 3107 3107 3107 3107 3107 3107 3107 3107 3107 3107 3106 3104 3103 3102 3100 3098 3096 3095 3093 3091 3089 3086 3083 3080 3078 3075 3071 3068 3065 3061 3058 3054 3051 3047 3043 3038 3032 3027 3021 3016 3010 3005 3000 2995 2991 2991 2992 2990 2989 2990 2992 3000 3012 3021 3025
3071 3072 3073 3074 3075 3076 3077 3077 3078 3079 3081 3082 3084 3085 3087 3088 3089 3091 3092 3094 3095 3096 3097 3098 3099 3100 3101 3102 3102 3102 3103 3103 3103 3103 3103 3103 3103 3103 3102 3102 3100 3099 3097 3096 3095 3093 3091 3089 3087 3085 3083 3080 3077 3074 3071 3068 3065 3063 3060 3056 3052 3049 3046 3041 3036 3031 3026 3020 3013 3008 3003 2997 2992 2986 2982 2983 2984 2982 2983 2988 2995 3003 3011 3015 3017
3069 3070 3072 3073 3074 3075 3076 3076 3077 3077 3078 3079 3081 3083 3085 3087 3087 3088 3090 3091 3092 3093 3094 3095 3096 3097 3097 3098 3098 3098 3099 3099 3099 3099 3099 3099 3099 3099 3098 3097 3095 3094 3092 3091 3090 3088 3086 3084 3082 3079 3077 3074 3071 3068 3066 3063 3060 3058 3055 3051 3048 3045 3041 3036 3031 3027 3022 3015 3008 3004 2999 2993 2989 2984 2976 2973 2974 2974 2980 2991 3001 3005 3009 3013 3017
3066 3068 3069 3071 3072 3073 3074 3074 3074 3075 3075 3077 3079 3081 3083 3084 3084 3085 3087 3088 3089 3090 3092 3093 3093 3093 3093 3094 3094 3094 3094 3094 3094 3095 3095 3095 3094 3094 3093 3092 3090 3088 3087 3086 3085 3083 3082 3079 3077 3074 3072 3069 3066 3063 3061 3058 3056 3053 3050 3047 3044 3041 3036 3032 3027 3022 3017 3010 3004 3000 2994 2988 2985 2980 2973 2970 2975 2982 2990 2999 3002 3001 3006 3016 3024
3064 3065 3066 3068 3069 3069 3070 3071 3072 3072 3073 3074 3076 3078 3079 3081 3082 3083 3084 3085 3086 3087 3088 3089 3090 3090 3090 3090 3090 3090 3091 3091 3091 3090 3090 3089 3088 3087 3087 3086 3084 3082 3081 3080 3080 3078 3076 3074 3072 3070 3067 3064 3062 3059 3057 3054 3052 3049 3046 3043 3040 3036 3031 3026 3022 3017 3012 3006 3001 2997 2991 2985 2982 2981 2979 2979 2984 2990 2996 3003 3007 3011 3016 3023 3028
3061 3062 3063 3064 3064 3065 3066 3067 3068 3069 3071 3072 3074 3076 3077 3079 3079 3080 3080 3081 3082 3083 3084 3085 3086 3086 3087 3087 3087 3087 3087 3087 3086 3085 3084 3083 3083 3082 3081 3080 3079 3077 3076 3075 3074 3073 3071 3069 3067 3065 3063 3061 3058 3056 3053 3051 3048 3046 3043 3040 3036 3032 3027 3022 3018 3014 3011 3007 3003 3000 2997 2993 2991 2991 2992 2995 2998 3001 3005 3009 3015 3020 3024 3027 3030
3056 3057 3057 3058 3059 3061 3062 3063 3065 3066 3068 3070 3071 3071 3072 3073 3074 3075 3076 3077 3078 3079 3080 3081 3082 3083 3083 3083 3083 3083 3083 3082 3081 3081 3080 3079 3078 3077 3076 3075 3074 3073 3072 3071 3069 3068 3066 3064 3063 3061 3059 3057 3055 3053 3051 3048 3046 3044 3041 3038 3034 3030 3026 3022 3019 3016 3013 3011 3009 3007 3005 3004 3003 3003 3004 3006 3008 3011 3014 3016 3018 3021 3024 3027 3030
3050 3051 3051 3053 3055 3056 3057 3060 3062 3063 3065 3066 3067 3067 3068 3070 3071 3073 3074 3074 3075 3076 3076 3077 3078 3079 3079 3079 3078 3078 3077 3077 3076 3076 3075 3074 3073 3072 3071 3071 3070 3069 3068 3066 3064 3063 3062 3061 3059 3058 3056 3055 3053 3050 3048 3047 3044 3042 3039 3037 3034 3030 3027 3023 3021 3018 3015 3014 3013 3012 3011 3010 3010 3009 3010 3011 3012 3012 3014 3016 3017 3019 3022 3025 3028
3046 3047 3048 3050 3052 3053 3055 3058 3060 3061 3063 3064 3065 3066 3067 3069 3070 3071 3071 3072 3072 3072 3073 3074 3074 3075 3075 3074 3074 3073 3072 3072 3071 3071 3070 3070 3069 3069 3068 3067 3066 3064 3063 3061 3059 3059 3058 3057 3056 3054 3053 3052 3050 3048 3046 3044 3042 3040 3038 3036 3034 3031 3028 3025 3023 3020 3018 3016 3015 3015 3014 3013 3013 3013 3012 3012 3012 3013 3013 3014 3016 3018 3021 3024 3028
3044 3046 3047 3049 3051 3053 3055 3058 3059 3060 3061 3063 3064 3065 3066 3067 3067 3068 3068 3068 3068 3068 3069 3069 3069 3069 3069 3069 3069 3069 3068 3067 3067 3067 3067 3066 3066 3065 3063 3062 3061 3060 3058 3057 3056 3055 3054 3054 3052 3051 3050 3049 3047 3046 3044 3042 3040 3038 3036 3035 3033 3031 3029 3026 3024 3022 3020 3018 3017 3016 3015 3014 3014 3014 3014 3014 3014 3015 3015 3016 3018 3020 3023 3026 3029
3045 3046 3047 3049 3051 3052 3054 3056 3058 3059 3060 3062 3062 3063 3063 3064 3064 3064 3064 3064 3064 3063 3063 3063 3064 3064 3064 3064 3064 3064 3063 3063 3064 3063 3063 3063 3062 3060 3059 3057 3057 3056 3055 3053 3052 3052 3051 3050 3049 3048 3047 3046 3045 3043 3042 3040 3038 3036 3035 3033 3032 3031 3029 3027 3025 3023 3021 3020 3019 3018 3018 3017 3016 3015 3016 3016 3017 3018 3018 3019 3020 3022 3025 3028 3031
3045 3046 3047 3048 3050 3051 3053 3054 3055 3056 3057 3058 3058 3059 3059 3059 3060 3060 3060 3060 3060 3060 3060 3060 3060 3060 3060 3060 3060 3060 3060 3060 3060 3059 3059 3058 3057 3055 3054 3053 3052 3052 3051 3050 3049 3048 3048 3047 3046 3045 3044 3043 3042 3041 3039 3038 3036 3034 3033 3032 3031 3030 3029 3027 3025 3023 3022 3021 3020 3019 3019 3019 3018 3018 3018 3018 3018 3019 3020 3022 3023 3025 3027 3029 3031
3043 3045 3046 3047 3048 3049 3050 3051 3052 3053 3053 3054 3055 3055 3055 3056 3056 3056 3056 3056 3056 3056 3056 3056 3056 3056 3056 3056 3056 3056 3056 3056 3056 3054 3053 3053 3052 3051 3050 3049 3049 3048 3048 3047 3046 3045 3044 3044 3043 3042 3041 3040 3039 3038 3037 3036 3034 3033 3031 3030 3030 3029 3028 3027 3025 3024 3022 3022 3021 3020 3020 3020 3019 3019 3019 3019 3019 3020 3022 3023 3024 3026 3027 3029 3030
3041 3043 3044 3045 3046 3046 3047 3048 3049 3049 3050 3050 3051 3051 3052 3052 3052 3053 3053 3053 3053 3053 3053 3053 3053 3053 3053 3053 3053 3052 3052 3051 3051 3050 3049 3049 3048 3047 3046 3046 3045 3045 3044 3043 3042 3042 3041 3041 3040 3039 3038 3037 3036 3035 3034 3033 3032 3031 3030 3029 3029 3028 3027 3026 3025 3024 3023 3022 3021 3021 3020 3020 3020 3020 3020 3020 3020 3021 3022 3023 3025 3026 3027 3028 3029
3038 3040 3041 3042 3043 3043 3044 3045 3045 3046 3046 3047 3047 3048 3048 3048 3048 3049 3049 3049 3049 3050 3050 3050 3050 3050 3049 3049 3048 3048 3047 3046 3046 3046 3045 3045 3044 3044 3043 3043 3042 3042 3041 3040 3039 3038 3038 3038 3038 3037 3036 3034 3034 3033 3032 3031 3030 3029 3029 3028 3028 3027 3026 3026 3025 3024 3023 3022 3022 3021 3021 3021 3021 3021 3021 3021 3021 3022 3022 3023 3024 3025 3026 3027 3028
3035 3036 3037 3039 3040 3040 3041 3042 3042 3043 3043 3043 3044 3044 3044 3045 3045 3045 3045 3046 3046 3046 3046 3046 3046 3046 3045 3045 3044 3044 3043 3042 3042 3042 3041 3041 3040 3040 3040 3040 3039 3038 3038 3037 3036 3036 3037 3037 3036 3035 3033 3033 3032 3031 3030 3029 3028 3028 3027 3027 3026 3026 3025 3024 3024 3023 3022 3022 3022 3021 3021 3021 3021 3020 3020 3021 3021 3021 3021 3022 3022 3023 3024 3026 3027
3033 3034 3035 3036 3037 3038 3038 3039 3039 3040 3040 3040 3041 3041 3042 3042 3042 3042 3042 3042 3042 3042 3042 3042 3042 3042 3042 3041 3041 3040 3040 3039 3039 3038 3037 3037 3036 3036 3036 3036 3036 3035 3034 3034 3034 3034 3035 3035 3034 3032 3031 3031 3031 3030 3028 3027 3026 3025 3025 3024 3024 3024 3023 3022 3022 3021 3021 3021 3021 3021 3020 3020 3020 3020 3020 3020 3021 3021 3021 3022 3022 3022 3023 3024 3025